DW0427 Weather Reports


Display with metric or nautical units.
time (UTC)temp
F
wind
direction
speed
MPH
gust
MPH
rain 1hr
in
rain 24hr
in
rain mn
in
humidity
%
barometer
mb
20260507095407 50 46 9.0 11.0 0.00 0.00 0.00 82 1012.6
20260507095207 50 46 9.0 12.0 0.00 0.00 0.00 83 1012.5
20260507095007 50 46 10.0 12.0 0.00 0.00 0.00 82 1012.5
20260507094607 50 46 10.0 16.0 0.00 0.00 0.00 82 1012.5
20260507094407 50 46 9.0 16.0 0.00 0.00 0.00 81 1012.4
20260507094207 50 46 9.0 16.0 0.00 0.00 0.00 81 1012.4
20260507093807 50 45 10.0 14.0 0.00 0.00 0.00 81 1012.5
20260507093607 50 45 10.0 14.0 0.00 0.00 0.00 81 1012.4
20260507093222 50 45 11.0 16.0 0.00 0.00 0.00 81 1012.3
20260507093007 50 45 11.0 16.0 0.00 0.00 0.00 80 1012.3
20260507092807 50 45 11.0 16.0 0.00 0.00 0.00 80 1012.3
20260507092608 51 46 11.0 16.0 0.00 0.00 0.00 79 1012.3
20260507092207 51 46 11.0 18.0 0.00 0.00 0.00 78 1012.4
20260507092008 51 45 10.0 18.0 0.00 0.00 0.00 78 1012.3
20260507091807 51 45 10.0 18.0 0.00 0.00 0.00 77 1012.3
20260507091608 52 45 9.0 18.0 0.00 0.00 0.00 77 1012.2
20260507091407 52 45 9.0 15.0 0.00 0.00 0.00 77 1012.2
20260507091208 52 45 8.0 15.0 0.00 0.00 0.00 76 1012.2
20260507090807 53 46 8.0 15.0 0.00 0.00 0.00 77 1012.3
20260507090607 53 46 8.0 15.0 0.00 0.00 0.00 77 1012.3
20260507090408 53 46 8.0 12.0 0.00 0.00 0.00 78 1012.3
20260507090010 53 46 8.0 12.0 0.00 0.00 0.00 77 1012.3
20260507085208 52 45 7.0 15.0 0.00 0.00 0.00 80 1012.4
20260507084808 52 46 7.0 10.0 0.00 0.00 0.00 79 1012.3
20260507084608 52 45 7.0 10.0 0.00 0.00 0.00 79 1012.4
20260507084408 52 46 7.0 11.0 0.00 0.00 0.00 79 1012.3
20260507084207 52 46 7.0 11.0 0.00 0.00 0.00 79 1012.2
20260507084007 52 46 7.0 11.0 0.00 0.00 0.00 80 1012.3
20260507083808 52 46 7.0 11.0 0.00 0.00 0.00 80 1012.3
20260507083608 52 46 7.0 11.0 0.00 0.00 0.00 82 1012.3
20260507083407 52 46 7.0 11.0 0.00 0.00 0.00 83 1012.2
20260507083207 52 46 7.0 11.0 0.00 0.00 0.00 83 1012.3
20260507083007 51 45 7.0 11.0 0.00 0.00 0.00 83 1012.3
20260507082808 51 45 7.0 11.0 0.00 0.00 0.00 83 1012.3
20260507082607 51 45 7.0 11.0 0.00 0.00 0.00 83 1012.2
20260507082223 50 46 6.0 11.0 0.00 0.00 0.00 84 1012.2
20260507082007 50 46 6.0 11.0 0.00 0.00 0.00 83 1012.2
20260507081807 50 45 6.0 11.0 0.00 0.00 0.00 83 1012.2
20260507081607 50 45 6.0 9.0 0.00 0.00 0.00 83 1012.2
20260507081208 50 45 6.0 10.0 0.00 0.00 0.00 83 1012.2
20260507081008 50 46 6.0 10.0 0.00 0.00 0.00 83 1012.2
20260507080808 50 45 6.0 10.0 0.00 0.00 0.00 83 1012.3
20260507080607 50 45 7.0 10.0 0.00 0.00 0.00 83 1012.3
20260507080407 50 45 7.0 10.0 0.00 0.00 0.00 83 1012.3
20260507080208 50 45 7.0 10.0 0.00 0.00 0.00 83 1012.2
20260507080008 50 45 7.0 10.0 0.00 0.00 0.00 82 1012.3
20260507075807 50 45 7.0 10.0 0.00 0.00 0.00 82 1012.4
20260507075607 50 45 7.0 10.0 0.00 0.00 0.00 82 1012.3
20260507075407 50 45 7.0 10.0 0.00 0.00 0.00 82 1012.4
20260507075207 50 45 7.0 10.0 0.00 0.00 0.00 82 1012.4
20260507075007 50 45 6.0 10.0 0.00 0.00 0.00 82 1012.4
20260507074807 50 45 6.0 10.0 0.00 0.00 0.00 82 1012.4
20260507074608 50 45 6.0 10.0 0.00 0.00 0.00 82 1012.4
20260507074408 50 46 6.0 10.0 0.00 0.00 0.00 82 1012.4
20260507074207 50 46 6.0 10.0 0.00 0.00 0.00 82 1012.4
20260507074008 50 46 6.0 10.0 0.00 0.00 0.00 82 1012.2
20260507073807 50 46 7.0 9.0 0.00 0.00 0.00 82 1012.2
20260507073607 50 46 7.0 9.0 0.00 0.00 0.00 82 1012.2
20260507073407 50 45 7.0 9.0 0.00 0.00 0.00 82 1012.1
20260507073008 50 46 8.0 11.0 0.00 0.00 0.00 83 1012.2
20260507072808 49 46 8.0 11.0 0.00 0.00 0.00 83 1012.1
20260507072608 49 45 7.0 11.0 0.00 0.00 0.00 82 1012.0
20260507072207 49 46 7.0 10.0 0.00 0.00 0.00 82 1012.1
20260507072007 49 45 7.0 9.0 0.00 0.00 0.00 83 1012.1
20260507071807 49 45 7.0 9.0 0.00 0.00 0.00 83 1012.0
20260507071607 49 45 7.0 10.0 0.00 0.00 0.00 83 1012.0
20260507071408 49 46 7.0 10.0 0.00 0.00 0.00 83 1012.1
20260507071208 49 45 7.0 10.0 0.00 0.00 0.00 83 1012.0
20260507071008 49 45 7.0 10.0 0.00 0.00 0.00 83 1012.0
20260507070807 49 45 7.0 10.0 0.00 0.00 0.00 84 1012.1
20260507070607 49 45 7.0 9.0 0.00 0.00 0.00 84 1012.1
20260507070407 49 46 7.0 10.0 0.00 0.00 0.00 84 1012.2
20260507070207 49 45 7.0 10.0 0.00 0.00 0.00 83 1012.2
20260507070011 49 45 7.0 10.0 0.00 0.00 0.00 83 1012.1
20260507065807 49 45 7.0 10.0 0.00 0.00 0.00 83 1012.1
20260507065607 49 45 7.0 10.0 0.00 0.00 0.00 83 1012.2
20260507065407 49 46 7.0 10.0 0.00 0.00 0.00 84 1012.2
20260507065007 48 46 7.0 9.0 0.00 0.00 0.00 84 1012.2
20260507064607 48 45 7.0 10.0 0.00 0.00 0.00 84 1012.1
20260507064408 48 45 7.0 10.0 0.00 0.00 0.00 84 1012.2
20260507064208 48 46 7.0 10.0 0.00 0.00 0.00 84 1012.2
20260507064008 48 45 7.0 10.0 0.00 0.00 0.00 84 1012.2
20260507063808 48 45 7.0 10.0 0.00 0.00 0.00 84 1012.2
20260507063608 47 45 7.0 10.0 0.00 0.00 0.00 84 1012.2
20260507063408 47 45 7.0 10.0 0.00 0.00 0.00 84 1012.2
20260507063208 47 46 6.0 9.0 0.00 0.00 0.00 84 1012.1
20260507063008 47 46 6.0 9.0 0.00 0.00 0.00 84 1012.2
20260507062807 47 46 6.0 9.0 0.00 0.00 0.00 85 1012.2
20260507062607 47 46 6.0 9.0 0.00 0.00 0.00 85 1012.1
20260507062207 47 45 6.0 8.0 0.00 0.00 0.00 85 1012.1
20260507062008 47 46 6.0 8.0 0.00 0.00 0.00 85 1012.2
20260507061807 47 46 6.0 8.0 0.00 0.00 0.00 85 1012.1
20260507061607 47 46 6.0 8.0 0.00 0.00 0.00 85 1012.1
20260507061407 47 46 7.0 8.0 0.00 0.00 0.00 85 1012.2
20260507061208 47 46 7.0 9.0 0.00 0.00 0.00 85 1012.1
20260507061008 47 46 7.0 9.0 0.00 0.00 0.00 85 1012.1
20260507060807 47 45 7.0 9.0 0.00 0.00 0.00 85 1012.2
20260507060407 47 46 6.0 10.0 0.00 0.00 0.00 84 1012.1
20260507060207 47 45 6.0 10.0 0.00 0.00 0.00 84 1012.1
20260507060008 47 45 6.0 10.0 0.00 0.00 0.00 84 1012.1
20260507055808 47 46 6.0 10.0 0.00 0.00 0.00 85 1012.1
20260507055407 47 45 6.0 9.0 0.00 0.00 0.00 84 1012.1
20260507055208 47 45 6.0 9.0 0.00 0.00 0.00 84 1012.1
20260507055007 47 46 6.0 8.0 0.00 0.00 0.00 84 1012.0
20260507054807 47 46 6.0 8.0 0.00 0.00 0.00 84 1012.1
20260507054408 47 46 6.0 8.0 0.00 0.00 0.00 85 1012.1
20260507053807 47 45 6.0 9.0 0.00 0.00 0.00 85 1012.1
20260507053607 47 45 6.0 9.0 0.00 0.00 0.00 85 1012.1
20260507053407 47 45 6.0 9.0 0.00 0.00 0.00 85 1012.1
20260507053207 47 45 6.0 9.0 0.00 0.00 0.00 85 1012.1
20260507053007 47 46 6.0 9.0 0.00 0.00 0.00 84 1012.2
20260507052807 46 45 6.0 9.0 0.00 0.00 0.00 84 1012.1
20260507052608 46 46 6.0 8.0 0.00 0.00 0.00 84 1012.1
20260507052408 46 45 6.0 8.0 0.00 0.00 0.00 85 1012.2
20260507052008 47 45 6.0 8.0 0.00 0.00 0.00 85 1012.1
20260507051808 47 46 6.0 8.0 0.00 0.00 0.00 85 1012.0
20260507051608 47 46 6.0 8.0 0.00 0.00 0.00 85 1012.1
20260507051408 46 45 6.0 8.0 0.00 0.00 0.00 85 1012.1
20260507051207 46 46 6.0 8.0 0.00 0.00 0.00 85 1012.1
20260507051008 46 45 6.0 9.0 0.00 0.00 0.00 85 1012.1
20260507050807 46 45 6.0 9.0 0.00 0.00 0.00 85 1012.0
20260507050607 46 46 6.0 9.0 0.00 0.00 0.00 85 1012.0
20260507050407 46 46 6.0 9.0 0.00 0.00 0.00 85 1012.1
20260507050207 46 46 6.0 9.0 0.00 0.00 0.00 85 1012.1
20260507050007 46 46 6.0 8.0 0.00 0.00 0.00 85 1012.0
20260507045807 46 46 6.0 8.0 0.00 0.00 0.00 85 1012.0
20260507045407 46 45 6.0 8.0 0.00 0.00 0.00 85 1012.0
20260507045207 46 45 5.0 8.0 0.00 0.00 0.00 85 1012.0
20260507044607 46 46 6.0 8.0 0.00 0.00 0.00 85 1012.0
20260507044407 46 46 6.0 8.0 0.00 0.00 0.00 85 1012.0
20260507044208 46 45 6.0 9.0 0.00 0.00 0.00 85 1012.0
20260507044008 46 46 7.0 9.0 0.00 0.00 0.00 85 1012.0
20260507043807 46 45 7.0 9.0 0.00 0.00 0.00 85 1012.0
20260507043607 46 46 7.0 9.0 0.00 0.00 0.00 84 1012.0
20260507043407 46 45 7.0 9.0 0.00 0.00 0.00 84 1011.9
20260507043207 46 46 7.0 10.0 0.00 0.00 0.00 84 1011.9
20260507043008 46 45 7.0 10.0 0.00 0.00 0.00 84 1011.8
20260507042808 46 45 8.0 10.0 0.00 0.00 0.00 85 1011.8
20260507042607 47 45 8.0 10.0 0.00 0.00 0.00 85 1011.8
20260507042407 47 45 8.0 10.0 0.00 0.00 0.00 85 1011.7
20260507042208 47 45 8.0 10.0 0.00 0.00 0.00 85 1011.7
20260507042007 47 46 7.0 10.0 0.00 0.00 0.00 85 1011.8
20260507041807 47 45 7.0 10.0 0.00 0.00 0.00 85 1011.8
20260507041607 47 45 7.0 10.0 0.00 0.00 0.00 85 1011.8
20260507041407 47 45 7.0 10.0 0.00 0.00 0.00 85 1011.8
20260507041207 47 45 7.0 10.0 0.00 0.00 0.00 84 1011.8
20260507041008 47 46 7.0 9.0 0.00 0.00 0.00 85 1011.8
20260507040807 47 46 7.0 9.0 0.00 0.00 0.00 85 1011.8
20260507040608 47 45 7.0 9.0 0.00 0.00 0.00 85 1011.8
20260507040407 47 45 6.0 9.0 0.00 0.00 0.00 85 1011.8
20260507040207 47 46 6.0 9.0 0.00 0.00 0.00 85 1011.8
20260507040007 47 45 6.0 9.0 0.00 0.00 0.00 84 1011.8
20260507035807 47 45 6.0 10.0 0.00 0.00 0.00 84 1011.8
20260507035608 47 45 6.0 10.0 0.00 0.00 0.00 84 1011.9
20260507035408 47 45 6.0 10.0 0.00 0.00 0.00 84 1011.8
20260507035207 47 45 6.0 10.0 0.00 0.00 0.00 84 1011.9
20260507035007 47 45 6.0 10.0 0.00 0.00 0.00 84 1011.9
20260507034807 47 45 6.0 8.0 0.00 0.00 0.00 84 1011.9
20260507034607 47 45 6.0 9.0 0.00 0.00 0.00 84 1011.9
20260507034407 47 45 6.0 9.0 0.00 0.00 0.00 84 1012.0
20260507034208 47 45 6.0 9.0 0.00 0.00 0.00 84 1012.0
20260507034008 47 45 6.0 9.0 0.00 0.00 0.00 84 1012.0
20260507033808 47 46 6.0 9.0 0.00 0.00 0.00 84 1012.0
20260507033607 47 45 6.0 9.0 0.00 0.00 0.00 84 1012.0
20260507033407 47 46 6.0 9.0 0.00 0.00 0.00 84 1012.0
20260507033207 47 45 6.0 9.0 0.00 0.00 0.00 84 1012.0
20260507033007 47 45 7.0 9.0 0.00 0.00 0.00 84 1012.0
20260507032807 47 45 7.0 9.0 0.00 0.00 0.00 84 1012.1
20260507032407 47 45 6.0 9.0 0.00 0.00 0.00 84 1012.1
20260507032208 47 46 6.0 9.0 0.00 0.00 0.00 84 1012.2
20260507032007 47 45 6.0 9.0 0.00 0.00 0.00 84 1012.1
20260507031607 47 45 6.0 8.0 0.00 0.00 0.00 83 1012.2
20260507031407 47 45 6.0 8.0 0.00 0.00 0.00 83 1012.2
20260507031007 47 45 5.0 8.0 0.00 0.00 0.00 84 1012.2
20260507030807 47 45 5.0 7.0 0.00 0.00 0.00 84 1012.3
20260507030607 47 46 5.0 7.0 0.00 0.00 0.00 83 1012.3
20260507030407 47 46 5.0 7.0 0.00 0.00 0.00 83 1012.3
20260507030207 47 46 5.0 7.0 0.00 0.00 0.00 83 1012.2
20260507030007 47 45 5.0 7.0 0.00 0.00 0.00 83 1012.2
20260507025807 47 46 5.0 7.0 0.00 0.00 0.00 83 1012.2
20260507025607 47 45 5.0 8.0 0.00 0.00 0.00 83 1012.3
20260507025408 47 46 5.0 8.0 0.00 0.00 0.00 83 1012.3
20260507025008 47 45 5.0 8.0 0.00 0.00 0.00 83 1012.2
20260507024807 47 46 4.0 8.0 0.00 0.00 0.00 83 1012.3
20260507024607 47 46 4.0 7.0 0.00 0.00 0.00 83 1012.2
20260507024407 47 46 4.0 7.0 0.00 0.00 0.00 83 1012.2
20260507024007 47 45 4.0 6.0 0.00 0.00 0.00 83 1012.2
20260507023807 47 45 4.0 6.0 0.00 0.00 0.00 83 1012.3
20260507023408 47 46 4.0 6.0 0.00 0.00 0.00 83 1012.3
20260507023208 47 45 3.0 6.0 0.00 0.00 0.00 83 1012.2
20260507023007 47 46 3.0 6.0 0.00 0.00 0.00 83 1012.3
20260507022807 47 45 3.0 6.0 0.00 0.00 0.00 83 1012.3
20260507021807 47 45 3.0 5.0 0.00 0.00 0.00 83 1012.2
20260507021607 47 45 3.0 5.0 0.00 0.00 0.00 83 1012.1
20260507021407 47 45 3.0 5.0 0.00 0.00 0.00 83 1012.1
20260507021207 47 45 3.0 5.0 0.00 0.00 0.00 83 1012.1
20260507021007 47 45 3.0 4.0 0.00 0.00 0.00 83 1012.1
20260507020808 47 45 3.0 5.0 0.00 0.00 0.00 83 1012.2
20260507020607 47 46 3.0 5.0 0.00 0.00 0.00 83 1012.1
20260507020407 47 46 4.0 5.0 0.00 0.00 0.00 83 1012.2
20260507020207 47 46 4.0 5.0 0.00 0.00 0.00 83 1012.2
20260507020007 47 45 4.0 5.0 0.00 0.00 0.00 83 1012.2
20260507015807 47 45 5.0 7.0 0.00 0.00 0.00 82 1012.2
20260507015608 47 45 5.0 7.0 0.00 0.00 0.00 83 1012.2
20260507015408 47 46 5.0 7.0 0.00 0.00 0.00 83 1012.2
20260507015208 47 46 5.0 7.0 0.00 0.00 0.00 82 1012.2
20260507014807 47 46 4.0 7.0 0.00 0.00 0.00 82 1012.3
20260507014607 47 46 4.0 7.0 0.00 0.00 0.00 82 1012.3
20260507014407 47 45 3.0 7.0 0.00 0.00 0.00 82 1012.3
20260507014207 47 45 3.0 6.0 0.00 0.00 0.00 82 1012.3
20260507014008 47 46 3.0 6.0 0.00 0.00 0.00 82 1012.4
20260507013808 47 45 3.0 6.0 0.00 0.00 0.00 82 1012.4
20260507013608 47 45 3.0 6.0 0.00 0.00 0.00 82 1012.4
20260507013407 47 45 4.0 6.0 0.00 0.00 0.00 82 1012.4
20260507013207 47 45 4.0 5.0 0.00 0.00 0.00 82 1012.5
20260507013007 47 46 4.0 6.0 0.00 0.00 0.00 82 1012.4
20260507012808 47 46 4.0 6.0 0.00 0.00 0.00 82 1012.5
20260507012608 47 46 4.0 6.0 0.00 0.00 0.00 82 1012.5
20260507012407 47 45 4.0 6.0 0.00 0.00 0.00 82 1012.4
20260507012207 47 46 4.0 6.0 0.00 0.00 0.00 82 1012.5
20260507012007 47 46 5.0 6.0 0.00 0.00 0.00 82 1012.5
20260507011808 47 46 5.0 6.0 0.00 0.00 0.00 82 1012.5
20260507011608 47 46 5.0 6.0 0.00 0.00 0.00 82 1012.5
20260507011407 47 45 5.0 7.0 0.00 0.00 0.00 82 1012.5
20260507011008 47 45 5.0 7.0 0.00 0.00 0.00 82 1012.6
20260507010807 47 46 5.0 7.0 0.00 0.00 0.00 82 1012.5
20260507010607 47 46 5.0 7.0 0.00 0.00 0.00 82 1012.5
20260507010407 47 45 4.0 7.0 0.00 0.00 0.00 82 1012.4
20260507010207 48 46 4.0 8.0 0.00 0.00 0.00 82 1012.5
20260507010007 48 46 4.0 8.0 0.00 0.00 0.00 82 1012.5
20260507005807 48 45 4.0 8.0 0.00 0.00 0.00 82 1012.5
20260507005607 48 45 4.0 8.0 0.00 0.00 0.00 82 1012.5
20260507005407 48 45 3.0 8.0 0.00 0.00 0.00 82 1012.5
20260507005007 48 45 3.0 6.0 0.00 0.00 0.00 82 1012.5
20260507004807 48 45 3.0 6.0 0.00 0.00 0.00 82 1012.6
20260507004607 48 45 4.0 5.0 0.00 0.00 0.00 82 1012.5
20260507004207 47 45 4.0 5.0 0.00 0.00 0.00 82 1012.6
20260507004007 47 46 4.0 5.0 0.00 0.00 0.00 82 1012.5
20260507003607 47 46 4.0 5.0 0.00 0.00 0.00 82 1012.6
20260507003407 47 46 3.0 5.0 0.00 0.00 0.00 82 1012.5
20260507003207 47 45 3.0 5.0 0.00 0.00 0.00 82 1012.5
20260507003007 47 45 3.0 5.0 0.00 0.00 0.00 82 1012.6
20260507002807 47 45 3.0 5.0 0.00 0.00 0.00 82 1012.6
20260507002607 47 45 3.0 5.0 0.00 0.00 0.00 82 1012.6
20260507002407 47 45 4.0 5.0 0.00 0.00 0.00 82 1012.6
20260507002007 47 45 4.0 5.0 0.00 0.00 0.00 82 1012.6
20260507001807 47 45 4.0 5.0 0.00 0.00 0.00 82 1012.6
20260507001607 47 45 4.0 5.0 0.00 0.00 0.00 82 1012.6
20260507001407 47 45 4.0 5.0 0.00 0.00 0.00 82 1012.7
20260507001207 47 45 4.0 5.0 0.00 0.00 0.00 82 1012.6
20260507001007 47 45 4.0 5.0 0.00 0.00 0.00 82 1012.6
20260507000807 47 45 4.0 5.0 0.00 0.00 0.00 82 1012.6
20260507000607 47 46 4.0 5.0 0.00 0.00 0.00 82 1012.6
20260507000407 48 46 4.0 5.0 0.00 0.00 0.00 82 1012.7
20260507000207 48 45 4.0 6.0 0.00 0.00 0.00 82 1012.7
20260507000007 48 46 4.0 6.0 0.00 0.00 0.00 82 1012.7
20260506235807 48 45 4.0 6.0 0.00 0.00 0.00 82 1012.7
20260506235607 48 46 4.0 6.0 0.00 0.00 0.00 82 1012.6
20260506235407 48 45 4.0 6.0 0.00 0.00 0.00 82 1012.6
20260506235207 48 46 4.0 6.0 0.00 0.00 0.00 82 1012.7
20260506235007 48 46 4.0 6.0 0.00 0.00 0.00 81 1012.7
20260506234607 48 45 3.0 6.0 0.00 0.00 0.00 81 1012.8
20260506234407 48 45 3.0 6.0 0.00 0.00 0.00 81 1013.0
20260506234207 48 45 3.0 5.0 0.00 0.00 0.00 81 1013.0
20260506234007 48 45 3.0 5.0 0.00 0.00 0.00 81 1013.1
20260506233607 48 45 4.0 5.0 0.00 0.00 0.00 81 1013.0
20260506233407 48 45 4.0 5.0 0.00 0.00 0.00 81 1013.0
20260506233207 48 45 4.0 5.0 0.00 0.00 0.00 81 1013.0
20260506233007 48 45 4.0 5.0 0.00 0.00 0.00 81 1013.0
20260506232807 48 46 3.0 5.0 0.00 0.00 0.00 81 1013.0
20260506232607 48 45 3.0 5.0 0.00 0.00 0.00 81 1012.9
20260506232407 48 46 3.0 5.0 0.00 0.00 0.00 81 1012.9
20260506232208 48 45 4.0 5.0 0.00 0.00 0.00 81 1013.0
20260506232008 48 45 4.0 5.0 0.00 0.00 0.00 80 1012.9
20260506231807 48 45 4.0 6.0 0.00 0.00 0.00 80 1012.9
20260506231607 48 46 3.0 6.0 0.00 0.00 0.00 80 1012.9
20260506231407 48 45 3.0 6.0 0.00 0.00 0.00 80 1012.9
20260506231207 48 46 3.0 6.0 0.00 0.00 0.00 80 1013.0
20260506231007 48 45 3.0 6.0 0.00 0.00 0.00 80 1013.0
20260506230807 48 45 3.0 5.0 0.00 0.00 0.00 80 1013.0
20260506230607 48 45 3.0 5.0 0.00 0.00 0.00 80 1013.0
20260506230407 48 45 4.0 5.0 0.00 0.00 0.00 80 1013.0
20260506230207 48 45 4.0 5.0 0.00 0.00 0.00 80 1013.0
20260506230007 48 45 4.0 5.0 0.00 0.00 0.00 80 1013.0
20260506225808 48 45 4.0 5.0 0.00 0.00 0.00 80 1013.1
20260506225607 48 45 4.0 5.0 0.00 0.00 0.00 80 1013.0
20260506225408 48 45 3.0 5.0 0.00 0.00 0.00 79 1012.9
20260506225208 48 46 3.0 5.0 0.00 0.00 0.00 79 1013.0
20260506225007 48 45 3.0 5.0 0.00 0.00 0.00 79 1013.0
20260506224807 49 45 3.0 5.0 0.00 0.00 0.00 79 1013.0
20260506224607 49 45 3.0 5.0 0.00 0.00 0.00 79 1013.1
20260506224407 49 45 3.0 5.0 0.00 0.00 0.00 78 1013.0
20260506224207 49 45 4.0 4.0 0.00 0.00 0.00 78 1013.1
20260506224007 49 45 4.0 5.0 0.00 0.00 0.00 78 1013.1
20260506223807 49 46 4.0 5.0 0.00 0.00 0.00 78 1013.0
20260506223607 49 46 4.0 5.0 0.00 0.00 0.00 78 1013.1
20260506223407 49 46 4.0 5.0 0.00 0.00 0.00 77 1013.1
20260506223207 49 45 4.0 5.0 0.00 0.00 0.00 77 1013.1
20260506222807 49 46 4.0 6.0 0.00 0.00 0.00 77 1013.0
20260506222407 49 46 4.0 6.0 0.00 0.00 0.00 77 1013.1
20260506222207 49 46 4.0 7.0 0.00 0.00 0.00 77 1013.1
20260506221807 49 46 4.0 7.0 0.00 0.00 0.00 78 1013.0
20260506221607 49 46 4.0 7.0 0.00 0.00 0.00 78 1013.0
20260506221207 49 46 3.0 6.0 0.00 0.00 0.00 77 1013.1
20260506221007 49 46 3.0 6.0 0.00 0.00 0.00 77 1013.0
20260506220807 49 46 3.0 6.0 0.00 0.00 0.00 77 1013.0
20260506220607 49 45 3.0 6.0 0.00 0.00 0.00 77 1013.0
20260506220407 49 46 3.0 6.0 0.00 0.00 0.00 77 1013.0
20260506220208 49 46 3.0 5.0 0.00 0.00 0.00 77 1013.0
20260506220008 49 45 3.0 5.0 0.00 0.00 0.00 77 1013.0
20260506215807 49 45 2.0 5.0 0.00 0.00 0.00 77 1013.0
20260506215608 49 46 2.0 5.0 0.00 0.00 0.00 77 1013.0
20260506215407 49 45 2.0 5.0 0.00 0.00 0.00 78 1013.0
20260506215207 49 45 1.0 5.0 0.00 0.00 0.00 78 1013.0
20260506215007 49 45 1.0 5.0 0.00 0.00 0.00 77 1013.0
20260506214807 49 45 1.0 3.0 0.00 0.00 0.00 77 1013.0
20260506214607 49 45 1.0 3.0 0.00 0.00 0.00 77 1013.1
20260506214007 49 45 2.0 3.0 0.00 0.00 0.00 77 1013.1
20260506213807 49 45 2.0 5.0 0.00 0.00 0.00 77 1013.1
20260506213607 49 46 3.0 5.0 0.00 0.00 0.00 77 1013.2
20260506213207 49 45 3.0 5.0 0.00 0.00 0.00 77 1013.1
20260506213007 49 45 3.0 5.0 0.00 0.00 0.00 77 1013.2
20260506212608 49 45 3.0 5.0 0.00 0.00 0.00 77 1013.1
20260506212407 49 45 3.0 5.0 0.00 0.00 0.00 77 1013.1
20260506212207 49 45 3.0 5.0 0.00 0.00 0.00 77 1013.1
20260506212008 49 45 2.0 5.0 0.00 0.00 0.00 77 1013.0
20260506211807 49 45 2.0 5.0 0.00 0.00 0.00 77 1012.9
20260506211607 49 45 2.0 5.0 0.00 0.00 0.00 76 1012.9
20260506211407 49 45 2.0 5.0 0.00 0.00 0.00 76 1012.9
20260506211207 49 45 2.0 5.0 0.00 0.00 0.00 76 1012.9
20260506211007 49 46 2.0 5.0 0.00 0.00 0.00 76 1013.0
20260506210808 49 45 2.0 5.0 0.00 0.00 0.00 76 1013.0
20260506210608 49 45 2.0 5.0 0.00 0.00 0.00 76 1013.0
20260506210407 49 45 2.0 5.0 0.00 0.00 0.00 76 1013.0
20260506210207 49 45 1.0 5.0 0.00 0.00 0.00 76 1013.0
20260506205607 49 45 2.0 5.0 0.00 0.00 0.00 76 1013.1
20260506205407 49 45 2.0 5.0 0.00 0.00 0.00 75 1013.1
20260506205207 49 45 2.0 5.0 0.00 0.00 0.00 75 1013.0
20260506205007 49 45 2.0 5.0 0.00 0.00 0.00 75 1013.0
20260506204607 49 45 2.0 4.0 0.00 0.00 0.00 75 1013.0
20260506204408 49 45 2.0 4.0 0.00 0.00 0.00 75 1012.9
20260506204207 49 45 2.0 4.0 0.00 0.00 0.00 75 1013.0
20260506204007 49 45 2.0 4.0 0.00 0.00 0.00 75 1012.9
20260506203807 49 45 3.0 4.0 0.00 0.00 0.00 75 1012.9
20260506203607 49 45 3.0 4.0 0.00 0.00 0.00 76 1012.9
20260506203407 49 45 3.0 4.0 0.00 0.00 0.00 76 1013.0
20260506203207 49 45 3.0 5.0 0.00 0.00 0.00 76 1013.0
20260506203008 49 45 3.0 5.0 0.00 0.00 0.00 76 1013.0
20260506202807 49 45 3.0 5.0 0.00 0.00 0.00 75 1013.0
20260506202608 49 45 3.0 5.0 0.00 0.00 0.00 75 1013.0
20260506202407 49 45 2.0 5.0 0.00 0.00 0.00 75 1012.9
20260506202207 50 45 2.0 5.0 0.00 0.00 0.00 75 1012.9
20260506202007 50 45 2.0 5.0 0.00 0.00 0.00 76 1012.9
20260506201807 50 45 1.0 4.0 0.00 0.00 0.00 75 1012.9
20260506201607 50 45 1.0 3.0 0.00 0.00 0.00 75 1012.8
20260506201207 51 45 1.0 3.0 0.00 0.00 0.00 74 1012.7
20260506201007 51 45 1.0 2.0 0.00 0.00 0.00 74 1012.7
20260506200807 51 45 2.0 2.0 0.00 0.00 0.00 74 1012.7
20260506200608 51 45 2.0 3.0 0.00 0.00 0.00 73 1012.7
20260506200407 51 45 3.0 6.0 0.00 0.00 0.00 73 1012.7
20260506200207 51 46 3.0 6.0 0.00 0.00 0.00 72 1012.7
20260506195607 51 46 4.0 6.0 0.00 0.00 0.00 71 1012.6
20260506195407 51 46 4.0 9.0 0.00 0.00 0.00 71 1012.6
20260506195007 51 46 4.0 9.0 0.00 0.00 0.00 71 1012.6
20260506194807 51 45 4.0 9.0 0.00 0.00 0.00 71 1012.7
20260506194407 51 45 4.0 7.0 0.00 0.00 0.00 71 1012.7
20260506194207 51 46 4.0 8.0 0.00 0.00 0.00 71 1012.7
20260506194007 51 45 4.0 9.0 0.00 0.00 0.00 71 1012.7
20260506193607 51 46 4.0 9.0 0.00 0.00 0.00 71 1012.8
20260506193407 51 46 4.0 9.0 0.00 0.00 0.00 71 1012.8
20260506193208 52 46 4.0 9.0 0.00 0.00 0.00 71 1012.9
20260506193007 52 46 4.0 8.0 0.00 0.00 0.00 71 1012.9
20260506192807 52 45 4.0 9.0 0.00 0.00 0.00 70 1012.8
20260506192607 52 46 4.0 9.0 0.00 0.00 0.00 70 1012.8
20260506192407 52 46 4.0 9.0 0.00 0.00 0.00 70 1012.8
20260506192207 52 46 4.0 9.0 0.00 0.00 0.00 70 1012.9
20260506192007 52 46 4.0 9.0 0.00 0.00 0.00 70 1012.8
20260506191607 52 46 4.0 8.0 0.00 0.00 0.00 70 1012.7
20260506191407 52 46 4.0 8.0 0.00 0.00 0.00 70 1012.7
20260506191007 52 46 4.0 8.0 0.00 0.00 0.00 70 1012.7
20260506190807 52 45 4.0 8.0 0.00 0.00 0.00 70 1012.7
20260506190607 52 46 4.0 8.0 0.00 0.00 0.00 70 1012.7
20260506190408 52 46 4.0 8.0 0.00 0.00 0.00 70 1012.7
20260506190207 52 46 4.0 8.0 0.00 0.00 0.00 70 1012.8
20260506190007 52 45 4.0 8.0 0.00 0.00 0.00 70 1012.8
20260506185807 53 46 4.0 8.0 0.00 0.00 0.00 70 1012.8
20260506185607 53 46 4.0 8.0 0.00 0.00 0.00 70 1012.7
20260506185407 53 45 4.0 8.0 0.00 0.00 0.00 71 1012.7
20260506185207 53 46 4.0 8.0 0.00 0.00 0.00 70 1012.8
20260506185007 53 46 4.0 8.0 0.00 0.00 0.00 71 1012.8
20260506184807 53 46 4.0 8.0 0.00 0.00 0.00 71 1012.7
20260506184607 53 46 4.0 8.0 0.00 0.00 0.00 71 1012.7
20260506184407 53 46 5.0 7.0 0.00 0.00 0.00 72 1012.8
20260506184208 53 46 5.0 7.0 0.00 0.00 0.00 73 1012.8
20260506183807 53 45 6.0 8.0 0.00 0.00 0.00 72 1012.9
20260506183607 53 45 5.0 11.0 0.00 0.00 0.00 72 1012.8
20260506183407 53 45 5.0 12.0 0.00 0.00 0.00 72 1012.8
20260506183207 53 46 5.0 12.0 0.00 0.00 0.00 71 1012.9
20260506183007 53 45 4.0 12.0 0.00 0.00 0.00 71 1012.8
20260506182807 53 45 4.0 12.0 0.00 0.00 0.00 70 1012.7
20260506182607 53 46 4.0 12.0 0.00 0.00 0.00 70 1012.8
20260506182208 54 45 5.0 9.0 0.00 0.00 0.00 70 1012.7
20260506182007 53 46 5.0 9.0 0.00 0.00 0.00 70 1012.6
20260506181807 53 46 5.0 9.0 0.00 0.00 0.00 70 1012.6
20260506181607 53 45 5.0 12.0 0.00 0.00 0.00 70 1012.5
20260506181407 53 45 5.0 12.0 0.00 0.00 0.00 70 1012.6
20260506181207 53 46 5.0 12.0 0.00 0.00 0.00 70 1012.6
20260506181007 53 45 5.0 12.0 0.00 0.00 0.00 70 1012.7
20260506180807 53 45 5.0 12.0 0.00 0.00 0.00 70 1012.6
20260506180407 53 45 5.0 12.0 0.00 0.00 0.00 70 1012.6
20260506180207 53 46 5.0 12.0 0.00 0.00 0.00 69 1012.6
20260506180007 53 46 5.0 12.0 0.00 0.00 0.00 69 1012.6
20260506175607 53 46 6.0 12.0 0.00 0.00 0.00 69 1012.5
20260506175407 54 45 6.0 9.0 0.00 0.00 0.00 69 1012.5
20260506175007 54 46 6.0 12.0 0.00 0.00 0.00 68 1012.6
20260506174807 54 46 6.0 12.0 0.00 0.00 0.00 68 1012.5
20260506174607 54 46 6.0 12.0 0.00 0.00 0.00 68 1012.5
20260506174407 54 46 6.0 12.0 0.00 0.00 0.00 69 1012.5
20260506174207 54 46 6.0 12.0 0.00 0.00 0.00 68 1012.6
20260506174022 54 46 6.0 10.0 0.00 0.00 0.00 69 1012.6
20260506173807 54 46 6.0 10.0 0.00 0.00 0.00 69 1012.6
20260506173607 54 45 7.0 10.0 0.00 0.00 0.00 69 1012.6
20260506173408 54 45 7.0 11.0 0.00 0.00 0.00 70 1012.6
20260506173007 54 45 6.0 12.0 0.00 0.00 0.00 70 1012.6
20260506172807 54 46 6.0 12.0 0.00 0.00 0.00 70 1012.6
20260506172607 54 46 6.0 12.0 0.00 0.00 0.00 70 1012.6
20260506172407 54 45 6.0 12.0 0.00 0.00 0.00 70 1012.6
20260506172207 54 45 6.0 11.0 0.00 0.00 0.00 70 1012.5
20260506172007 54 45 6.0 11.0 0.00 0.00 0.00 71 1012.6
20260506171807 54 46 6.0 11.0 0.00 0.00 0.00 71 1012.6
20260506171607 54 46 6.0 12.0 0.00 0.00 0.00 70 1012.5
20260506171407 54 46 6.0 12.0 0.00 0.00 0.00 70 1012.5
20260506171207 54 45 6.0 12.0 0.00 0.00 0.00 70 1012.6
20260506171007 54 45 6.0 12.0 0.00 0.00 0.00 70 1012.6
20260506170807 54 46 6.0 12.0 0.00 0.00 0.00 70 1012.7
20260506170607 54 45 6.0 12.0 0.00 0.00 0.00 70 1012.6
20260506170407 54 45 6.0 12.0 0.00 0.00 0.00 70 1012.7
20260506170207 54 46 6.0 12.0 0.00 0.00 0.00 70 1012.6
20260506165807 54 45 5.0 11.0 0.00 0.00 0.00 70 1012.8
20260506165207 54 45 4.0 10.0 0.00 0.00 0.00 69 1012.7
20260506164607 55 46 4.0 7.0 0.00 0.00 0.00 67 1012.7
20260506164408 55 46 4.0 7.0 0.00 0.00 0.00 67 1012.6
20260506164007 54 45 4.0 9.0 0.00 0.00 0.00 67 1012.6
20260506163807 54 46 4.0 9.0 0.00 0.00 0.00 67 1012.7
20260506163607 54 46 4.0 9.0 0.00 0.00 0.00 67 1012.7
20260506163407 54 46 4.0 9.0 0.00 0.00 0.00 66 1012.6
20260506163207 54 45 4.0 10.0 0.00 0.00 0.00 66 1012.7
20260506162807 54 45 4.0 10.0 0.00 0.00 0.00 66 1012.6
20260506162608 54 45 4.0 10.0 0.00 0.00 0.00 66 1012.7
20260506162407 55 46 4.0 10.0 0.00 0.00 0.00 66 1012.7
20260506162207 55 46 4.0 8.0 0.00 0.00 0.00 66 1012.8
20260506161607 55 46 3.0 8.0 0.00 0.00 0.00 65 1012.8
20260506161407 55 46 3.0 8.0 0.00 0.00 0.00 64 1012.8
20260506160807 55 45 3.0 8.0 0.00 0.00 0.00 63 1012.7
20260506160607 56 45 3.0 6.0 0.00 0.00 0.00 62 1012.7
20260506160207 56 46 3.0 6.0 0.00 0.00 0.00 59 1012.7
20260506160007 56 46 3.0 6.0 0.00 0.00 0.00 56 1012.7
20260506155607 56 45 3.0 6.0 0.00 0.00 0.00 55 1012.8
20260506155407 56 46 3.0 6.0 0.00 0.00 0.00 54 1012.9
20260506154607 57 45 4.0 7.0 0.00 0.00 0.00 53 1012.8
20260506154008 57 45 4.0 7.0 0.00 0.00 0.00 53 1012.7
20260506153807 57 46 4.0 7.0 0.00 0.00 0.00 53 1012.8
20260506153607 57 46 4.0 7.0 0.00 0.00 0.00 53 1012.8
20260506153407 57 46 4.0 6.0 0.00 0.00 0.00 53 1012.8
20260506153207 57 45 5.0 7.0 0.00 0.00 0.00 53 1012.8
20260506153007 57 46 5.0 7.0 0.00 0.00 0.00 53 1013.0
20260506152807 57 46 5.0 9.0 0.00 0.00 0.00 52 1012.9
20260506152407 57 45 4.0 9.0 0.00 0.00 0.00 52 1012.7
20260506152207 58 45 3.0 9.0 0.00 0.00 0.00 52 1012.8
20260506152007 58 45 3.0 9.0 0.00 0.00 0.00 51 1012.7
20260506151807 58 45 2.0 9.0 0.00 0.00 0.00 51 1012.7
20260506151607 58 45 2.0 8.0 0.00 0.00 0.00 51 1012.7
20260506151407 58 45 3.0 6.0 0.00 0.00 0.00 51 1012.8
20260506151207 58 45 3.0 5.0 0.00 0.00 0.00 51 1012.8
20260506151007 58 45 4.0 5.0 0.00 0.00 0.00 51 1012.8
20260506150807 58 45 4.0 6.0 0.00 0.00 0.00 51 1012.7
20260506150608 58 45 5.0 9.0 0.00 0.00 0.00 52 1012.7
20260506150407 58 45 5.0 9.0 0.00 0.00 0.00 51 1012.8
20260506150007 58 45 5.0 11.0 0.00 0.00 0.00 50 1012.8
20260506145807 58 46 5.0 11.0 0.00 0.00 0.00 51 1013.0
20260506145607 58 45 5.0 11.0 0.00 0.00 0.00 52 1013.0
20260506145407 58 46 4.0 11.0 0.00 0.00 0.00 52 1013.1
20260506145207 59 46 4.0 11.0 0.00 0.00 0.00 51 1013.0
20260506145008 59 46 4.0 11.0 0.00 0.00 0.00 50 1012.8
20260506144807 59 45 4.0 11.0 0.00 0.00 0.00 50 1013.0
20260506144607 59 45 4.0 11.0 0.00 0.00 0.00 48 1012.9
20260506144407 59 45 4.0 9.0 0.00 0.00 0.00 47 1012.9
20260506144007 59 45 3.0 9.0 0.00 0.00 0.00 45 1013.0
20260506143807 60 46 3.0 9.0 0.00 0.00 0.00 45 1012.9
20260506143607 60 45 3.0 9.0 0.00 0.00 0.00 46 1012.9
20260506143207 60 45 4.0 9.0 0.00 0.00 0.00 49 1013.0
20260506142807 59 46 4.0 7.0 0.00 0.00 0.00 52 1013.1
20260506142607 59 46 5.0 7.0 0.00 0.00 0.00 49 1013.1
20260506142407 59 45 5.0 10.0 0.00 0.00 0.00 47 1013.0
20260506142207 59 46 5.0 11.0 0.00 0.00 0.00 45 1013.0
20260506142007 59 46 5.0 11.0 0.00 0.00 0.00 48 1013.0
20260506141807 59 45 5.0 11.0 0.00 0.00 0.00 48 1013.1
20260506141407 59 46 5.0 12.0 0.00 0.00 0.00 50 1013.1
20260506141207 58 45 6.0 12.0 0.00 0.00 0.00 50 1013.1
20260506140808 58 45 6.0 12.0 0.00 0.00 0.00 51 1013.2
20260506140608 58 46 5.0 12.0 0.00 0.00 0.00 50 1013.2
20260506140408 59 45 5.0 11.0 0.00 0.00 0.00 49 1013.2
20260506140208 59 45 4.0 11.0 0.00 0.00 0.00 48 1013.1
20260506140008 59 46 4.0 11.0 0.00 0.00 0.00 48 1013.2
20260506135808 60 45 4.0 11.0 0.00 0.00 0.00 50 1013.2
20260506135408 60 46 4.0 7.0 0.00 0.00 0.00 50 1013.2
20260506135208 60 46 4.0 7.0 0.00 0.00 0.00 50 1013.1
20260506135008 59 46 4.0 8.0 0.00 0.00 0.00 54 1013.2
20260506134608 59 46 4.0 8.0 0.00 0.00 0.00 54 1013.2
20260506134408 59 46 4.0 9.0 0.00 0.00 0.00 52 1013.3
20260506134208 59 45 4.0 10.0 0.00 0.00 0.00 53 1013.2
20260506134008 59 45 4.0 10.0 0.00 0.00 0.00 52 1013.3
20260506133808 59 45 3.0 10.0 0.00 0.00 0.00 53 1013.3
20260506133608 58 45 3.0 10.0 0.00 0.00 0.00 54 1013.4
20260506133408 58 46 3.0 10.0 0.00 0.00 0.00 53 1013.4
20260506133208 58 45 4.0 8.0 0.00 0.00 0.00 52 1013.5
20260506133008 58 45 4.0 8.0 0.00 0.00 0.00 53 1013.4
20260506132808 58 46 4.0 8.0 0.00 0.00 0.00 51 1013.5
20260506132608 59 45 4.0 9.0 0.00 0.00 0.00 50 1013.5
20260506132408 59 46 4.0 9.0 0.00 0.00 0.00 49 1013.5
20260506132208 59 45 5.0 10.0 0.00 0.00 0.00 52 1013.6
20260506131808 58 45 4.0 10.0 0.00 0.00 0.00 53 1013.5
20260506131608 58 45 4.0 10.0 0.00 0.00 0.00 55 1013.6
20260506131408 58 45 4.0 10.0 0.00 0.00 0.00 53 1013.5
20260506131208 58 45 3.0 10.0 0.00 0.00 0.00 54 1013.6
20260506131008 57 46 3.0 9.0 0.00 0.00 0.00 51 1013.5
20260506130808 57 46 3.0 9.0 0.00 0.00 0.00 55 1013.5
20260506130607 57 45 2.0 9.0 0.00 0.00 0.00 53 1013.5
20260506130208 56 45 2.0 6.0 0.00 0.00 0.00 54 1013.5
20260506130008 56 45 2.0 5.0 0.00 0.00 0.00 55 1013.5
20260506125808 56 45 3.0 6.0 0.00 0.00 0.00 53 1013.5
20260506125608 56 46 3.0 6.0 0.00 0.00 0.00 54 1013.5
20260506125408 56 46 3.0 6.0 0.00 0.00 0.00 54 1013.5
20260506125208 56 45 3.0 6.0 0.00 0.00 0.00 55 1013.6
20260506125008 56 46 4.0 6.0 0.00 0.00 0.00 56 1013.6
20260506124808 56 45 4.0 6.0 0.00 0.00 0.00 55 1013.6
20260506124408 57 46 4.0 6.0 0.00 0.00 0.00 55 1013.7
20260506124008 57 46 4.0 7.0 0.00 0.00 0.00 57 1013.8
20260506123808 57 46 4.0 8.0 0.00 0.00 0.00 58 1013.9
20260506123608 56 46 4.0 8.0 0.00 0.00 0.00 60 1013.8
20260506123408 56 46 3.0 8.0 0.00 0.00 0.00 59 1013.8
20260506123208 56 46 3.0 8.0 0.00 0.00 0.00 59 1013.8
20260506123008 56 46 2.0 8.0 0.00 0.00 0.00 58 1013.9
20260506122808 56 45 2.0 8.0 0.00 0.00 0.00 57 1013.7
20260506122608 56 46 2.0 7.0 0.00 0.00 0.00 57 1013.7
20260506122423 56 45 2.0 7.0 0.00 0.00 0.00 56 1013.7
20260506122208 56 45 2.0 6.0 0.00 0.00 0.00 55 1013.7
20260506122008 56 45 3.0 6.0 0.00 0.00 0.00 54 1013.7
20260506121808 56 45 3.0 5.0 0.00 0.00 0.00 53 1013.6
20260506121608 57 45 3.0 6.0 0.00 0.00 0.00 56 1013.7
20260506121408 57 46 3.0 6.0 0.00 0.00 0.00 54 1013.8
20260506121209 57 45 4.0 7.0 0.00 0.00 0.00 54 1013.8
20260506121008 57 46 4.0 7.0 0.00 0.00 0.00 55 1013.8
20260506120808 57 46 4.0 7.0 0.00 0.00 0.00 55 1013.9
20260506120608 57 46 4.0 9.0 0.00 0.00 0.00 53 1013.8
20260506120208 57 45 3.0 9.0 0.00 0.00 0.00 52 1013.7
20260506115808 57 46 2.0 9.0 0.00 0.00 0.00 52 1013.9
20260506115608 58 45 2.0 6.0 0.00 0.00 0.00 52 1013.9
20260506115408 57 45 2.0 6.0 0.00 0.00 0.00 55 1014.1
20260506115008 56 45 2.0 6.0 0.00 0.00 0.00 60 1014.0
20260506114608 55 45 2.0 6.0 0.00 0.00 0.00 55 1013.8
20260506114409 55 45 2.0 4.0 0.00 0.00 0.00 55 1014.1
20260506114208 55 45 2.0 4.0 0.00 0.00 0.00 56 1014.2
20260506114008 55 45 2.0 5.0 0.00 0.00 0.00 56 1014.1
20260506113608 55 46 3.0 5.0 0.00 0.00 0.00 55 1013.9
20260506113208 55 46 3.0 7.0 0.00 0.00 0.00 56 1014.2
20260506113008 56 45 4.0 7.0 0.00 0.00 0.00 55 1014.2
20260506112809 56 46 4.0 7.0 0.00 0.00 0.00 55 1014.2
20260506112608 56 46 4.0 7.0 0.00 0.00 0.00 48 1014.2
20260506112408 57 45 4.0 11.0 0.00 0.00 0.00 49 1014.1
20260506112208 57 46 3.0 11.0 0.00 0.00 0.00 50 1014.2
20260506111608 58 45 2.0 11.0 0.00 0.00 0.00 56 1014.2
20260506111408 58 45 1.0 5.0 0.00 0.00 0.00 56 1014.1
20260506111208 58 45 1.0 5.0 0.00 0.00 0.00 54 1014.1
20260506111008 57 45 1.0 4.0 0.00 0.00 0.00 53 1014.1
20260506110809 57 45 1.0 3.0 0.00 0.00 0.00 56 1014.4
20260506110208 55 45 3.0 4.0 0.00 0.00 0.00 52 1014.4
20260506110008 55 45 3.0 4.0 0.00 0.00 0.00 52 1014.4
20260506105808 55 46 3.0 5.0 0.00 0.00 0.00 51 1014.4
20260506105408 55 45 3.0 5.0 0.00 0.00 0.00 54 1014.4
20260506105208 56 45 2.0 5.0 0.00 0.00 0.00 54 1014.4
20260506105008 56 45 2.0 5.0 0.00 0.00 0.00 54 1014.4
20260506104608 56 45 3.0 5.0 0.00 0.00 0.00 54 1014.4
20260506104208 56 45 3.0 5.0 0.00 0.00 0.00 55 1014.4
20260506104008 56 46 3.0 7.0 0.00 0.00 0.00 57 1014.5
20260506103808 56 46 3.0 8.0 0.00 0.00 0.00 54 1014.5
20260506103408 56 45 2.0 8.0 0.00 0.00 0.00 61 1014.6
20260506103008 56 46 2.0 8.0 0.00 0.00 0.00 57 1014.5
20260506102808 55 45 2.0 6.0 0.00 0.00 0.00 59 1014.5
20260506102608 55 45 2.0 4.0 0.00 0.00 0.00 59 1014.7
20260506102208 54 46 2.0 5.0 0.00 0.00 0.00 58 1014.7
20260506102008 54 45 2.0 5.0 0.00 0.00 0.00 58 1014.8
20260506101808 54 45 2.0 5.0 0.00 0.00 0.00 57 1014.7
20260506101608 54 45 2.0 5.0 0.00 0.00 0.00 58 1014.7
20260506101408 55 45 2.0 4.0 0.00 0.00 0.00 59 1014.7
20260506101208 54 45 2.0 4.0 0.00 0.00 0.00 59 1014.7
20260506101008 54 45 2.0 4.0 0.00 0.00 0.00 60 1014.9
20260506100808 54 45 2.0 4.0 0.00 0.00 0.00 59 1014.9
20260506100608 54 45 2.0 4.0 0.00 0.00 0.00 60 1014.9
20260506100408 54 45 2.0 4.0 0.00 0.00 0.00 62 1015.0
20260506100208 54 45 2.0 4.0 0.00 0.00 0.00 65 1014.9
20260506100008 54 45 2.0 4.0 0.00 0.00 0.00 61 1015.0
20260506095808 54 45 2.0 5.0 0.00 0.00 0.00 60 1014.9